[[[{"header":{"parameterUnit":"kt","parameterCategory":2,"dx":1,"dy":1,"la1":30.253999710083008,"la2":30.299108505249023,"lo1":-89.0895004272461,"lo2":-89.04439544677734,"nx":28,"ny":28,"refTime":"2022-10-02T21:00:00:Z","depth":0,"parameterNumber":1,"parameterNumberName":"U-component_of_WINDS"},"data":[2.035,2.038,2.0392,2.0432,2.045,2.048,2.0495,2.0516,2.0537,2.0576,2.0601,2.0618,2.0645,2.068,2.0709,2.0717,2.0728,2.0729,2.0738,2.0721,2.0719,2.0718,2.0711,2.0731,2.0731,2.0754,2.0754,2.0755,2.0335,2.0352,2.0377,2.041,2.0431,2.0437,2.0465,2.0483,2.0511,2.0536,2.0562,2.0598,2.0629,2.0657,2.069,2.0706,2.0712,2.0714,2.0713,2.0718,2.07,2.0692,2.0709,2.0709,2.0709,2.0709,2.0709,2.0709,2.0311,2.0328,2.0355,2.0382,2.0402,2.0425,2.0444,2.0464,2.049,2.0524,2.0536,2.0568,2.0598,2.0645,2.0664,2.0691,2.0692,2.0699,2.0701,2.0703,2.0702,2.0667,2.0698,2.0698,2.0698,2.0698,2.0698,0,2.0297,2.0306,2.0331,2.036,2.0381,2.0405,2.0429,2.0442,2.0468,2.0488,2.052,2.054,2.0582,2.0614,2.0648,2.0668,2.0679,2.0682,2.0687,2.0682,2.0672,2.0678,2.0648,2.0681,2.0681,2.0681,2.0681,2.0681,2.0275,2.0294,2.0328,2.0344,2.036,2.0386,2.0404,2.0426,2.0445,2.0479,2.0495,2.0527,2.0554,2.0604,2.063,2.0662,2.0668,2.0679,2.0673,2.0667,2.0669,2.0667,2.067,2.068,2.068,2.068,2.0681,0,2.0261,2.0281,2.0315,2.0348,2.0357,2.0377,2.0406,2.0425,2.0444,2.0473,2.0482,2.0511,2.0542,2.0567,2.0609,2.0621,2.0656,2.066,2.0645,2.0647,2.066,2.0659,2.0697,2.0704,2.0682,2.0682,2.0683,0,2.025,2.0274,2.0304,2.0323,2.0351,2.0372,2.04,2.0418,2.0443,2.0467,2.0482,2.0505,2.0532,2.0559,2.0577,2.0609,2.0617,2.0629,2.0633,2.0628,2.0626,2.064,2.0639,2.0643,2.0642,2.0642,2.0642,0,2.0226,2.0271,2.0301,2.0315,2.0354,2.0368,2.0385,2.0414,2.0432,2.046,2.0473,2.0505,2.0522,2.0547,2.057,2.0564,2.061,2.0608,2.0622,2.0622,2.0632,2.0631,2.0658,2.0642,2.0642,2.0642,2.0642,0,2.0221,2.0247,2.0288,2.032,2.0331,2.0352,2.0383,2.0406,2.0436,2.0448,2.0471,2.0484,2.0515,2.0511,2.0553,2.054,2.0557,2.0571,2.0572,2.0577,2.0572,2.0585,2.0607,2.0611,2.0581,2.058,2.058,0,2.0189,2.0235,2.0253,2.0292,2.0317,2.0332,2.0356,2.0381,2.0399,2.0424,2.0445,2.0474,2.0476,2.0488,2.0506,2.0529,2.0546,2.0528,2.0566,2.0567,2.0557,2.0579,2.0576,2.0599,2.0574,2.0574,2.0575,0,2.0166,2.0212,2.0218,2.0235,2.027,2.0292,2.0319,2.0351,2.0367,2.0394,2.0418,2.046,2.0463,2.0484,2.0499,2.0517,2.0536,2.0518,2.052,2.0521,2.0573,2.057,2.0574,2.0542,2.0543,2.0544,2.057,0,2.0155,2.0181,2.0197,2.0233,2.0253,2.0279,2.0303,2.0322,2.0333,2.0351,2.0387,2.0416,2.0451,2.0462,2.0474,2.0506,2.0505,2.0508,2.0507,2.052,2.053,2.0534,2.0491,2.0491,2.0491,2.0491,0,0,2.0119,2.0157,2.0176,2.0202,2.022,2.0235,2.0261,2.0281,2.0321,2.0334,2.0333,2.0396,2.042,2.0461,2.0468,2.0482,2.049,2.0485,2.0514,2.0516,2.0518,2.0528,2.0531,2.0491,2.0491,2.0491,2.0491,0,2.0119,2.014,2.0164,2.0185,2.0217,2.0235,2.024,2.0275,2.0289,2.0324,2.0338,2.0362,2.0412,2.0436,2.0454,2.048,2.049,2.0489,2.0494,2.0514,2.0516,2.0518,2.0528,2.0531,2.0492,2.0492,2.0492,0,2.0102,2.0126,2.0141,2.0182,2.0203,2.0229,2.0233,2.026,2.028,2.0298,2.0333,2.0352,2.0386,2.0422,2.0439,2.0439,2.0488,2.0477,2.0478,2.048,2.0501,2.0504,2.0506,2.0475,2.0474,2.0474,0,0,2.01,2.0124,2.0158,2.0184,2.0196,2.0223,2.024,2.0253,2.0282,2.0293,2.0319,2.0347,2.0376,2.0395,2.0424,2.046,2.0469,2.0474,2.0475,2.0476,2.0479,2.0499,2.0502,2.0474,2.0474,2.0474,0,0,2.0099,2.0138,2.0144,2.0178,2.0203,2.024,2.0256,2.0265,2.0293,2.0293,2.0318,2.0327,2.0361,2.038,2.0368,2.0425,2.0423,2.0426,2.0411,2.0412,2.0413,2.0408,2.0378,0,0,0,0,0,2.0112,2.0133,2.0138,2.0147,2.0201,2.0237,2.0244,2.0264,2.0262,2.0274,2.0297,2.0306,2.0379,2.0369,2.0379,2.0392,2.0465,2.0467,2.0468,2.0457,2.0458,2.0459,0,0,0,0,0,0,2.0116,2.0127,2.0138,2.0174,2.0187,2.0236,2.0237,2.0243,2.0261,2.0262,2.0301,2.0307,2.0327,2.0366,2.0374,2.0386,2.0375,2.0466,2.0467,2.0468,2.0457,2.0458,2.0459,0,0,0,0,0,2.0119,2.0128,2.0208,2.0174,2.0185,2.0217,2.0236,2.0241,2.0256,2.0291,2.0298,2.0269,2.0326,2.0335,2.0371,2.0382,2.0369,2.0372,2.0467,2.0468,2.0469,2.0458,0,0,0,0,0,0,2.0121,2.0134,2.021,2.0214,2.0168,2.0215,2.0223,2.024,2.0284,2.0291,2.0261,2.0261,2.0327,2.0333,2.034,2.0379,2.0365,2.0368,2.037,2.0467,2.0468,2.0469,0,0,0,0,0,0,2.0129,2.0137,2.0212,2.0203,2.0206,2.0213,2.022,2.0253,2.0285,2.0251,2.0253,2.026,2.0317,2.0332,2.0337,2.0389,2.0361,2.0364,2.0366,2.0368,2.0468,2.0469,0,0,0,0,0,0,2.0133,2.014,2.0202,2.0204,2.0207,2.0254,2.0243,2.0297,2.0274,2.0249,2.0273,2.0273,2.0316,2.0322,2.0335,2.0385,2.0388,2.0361,2.0363,2.0365,2.0366,0,0,0,0,0,0,0,2.0136,2.0085,2.0186,2.0205,2.0208,2.0252,2.0253,2.0254,2.0274,2.0274,2.0273,2.0273,2.0344,2.0347,2.0351,2.0382,0,0,2.0361,2.0362,0,0,0,0,0,0,0,0,2.0082,2.0084,2.0186,2.0187,2.0188,2.0252,2.0253,2.0254,2.0274,2.0274,2.0273,2.0273,2.0345,2.0348,2.035,0,0,0,0,0,0,0,0,0,0,0,0,0,0,0,2.0186,2.0187,0,2.0252,2.0253,2.0254,2.0274,2.0274,2.0273,2.0273,2.0346,2.0348,2.035,0,0,0,0,0,0,0,0,0,0,0,0,0,0,0,0,0,0,0,0,0,0,0,0,0,0,0,0,0,0,0,0,0,0,0,0,0,0,0,0,0,0,0,0,0,0,0,0,0,0,0,0,0,0,0,0,0,0,0,0,0,0,0,0,0,0,0,0,0]}],[{"header":{"parameterUnit":"kt","parameterCategory":2,"dx":1,"dy":1,"la1":30.253999710083008,"la2":30.299108505249023,"lo1":-89.0895004272461,"lo2":-89.04439544677734,"nx":28,"ny":28,"refTime":"2022-10-02T21:00:00:Z","depth":0,"parameterNumber":2,"parameterNumberName":"V-component_of_WINDS"},"data":[-3.4469,-3.4463,-3.449,-3.4495,-3.452,-3.4527,-3.4538,-3.4554,-3.4573,-3.4582,-3.4592,-3.4614,-3.464,-3.4655,-3.4664,-3.4673,-3.4676,-3.4658,-3.4672,-3.4734,-3.4744,-3.4754,-3.476,-3.4658,-3.4657,-3.4606,-3.4605,-3.4605,-3.4521,-3.4547,-3.4556,-3.4583,-3.4591,-3.4627,-3.4649,-3.4654,-3.4657,-3.4678,-3.4688,-3.4696,-3.4704,-3.4735,-3.4747,-3.4743,-3.4759,-3.4744,-3.4746,-3.475,-3.4817,-3.4823,-3.4732,-3.4732,-3.4732,-3.4732,-3.4732,-3.4732,-3.4624,-3.4618,-3.4651,-3.4661,-3.468,-3.4697,-3.4695,-3.4724,-3.4731,-3.4747,-3.4773,-3.4775,-3.4799,-3.4821,-3.4832,-3.4834,-3.4853,-3.4844,-3.4842,-3.484,-3.4837,-3.4918,-3.4836,-3.4836,-3.4836,-3.4837,-3.4837,0,-3.4709,-3.4732,-3.4741,-3.4759,-3.4767,-3.4781,-3.4798,-3.4796,-3.4847,-3.4849,-3.4855,-3.4861,-3.4872,-3.4878,-3.4891,-3.4905,-3.4938,-3.4941,-3.4936,-3.4927,-3.492,-3.4928,-3.504,-3.4943,-3.4944,-3.4945,-3.4945,-3.4946,-3.4819,-3.4806,-3.4849,-3.4852,-3.4868,-3.487,-3.4876,-3.4921,-3.4925,-3.495,-3.494,-3.4946,-3.4954,-3.4953,-3.498,-3.4987,-3.5002,-3.4964,-3.5003,-3.4997,-3.5007,-3.5009,-3.501,-3.4956,-3.4955,-3.4954,-3.4953,0,-3.4879,-3.492,-3.4908,-3.495,-3.496,-3.4943,-3.4978,-3.4971,-3.4997,-3.4991,-3.4991,-3.5031,-3.5032,-3.5066,-3.5071,-3.5089,-3.5063,-3.5076,-3.5059,-3.5065,-3.5037,-3.504,-3.4932,-3.4922,-3.5024,-3.5023,-3.5022,0,-3.499,-3.4969,-3.5032,-3.5022,-3.5002,-3.5049,-3.5027,-3.5047,-3.5067,-3.5062,-3.5105,-3.5099,-3.5142,-3.514,-3.5165,-3.515,-3.5149,-3.5162,-3.517,-3.516,-3.5159,-3.5162,-3.5169,-3.5181,-3.5181,-3.5182,-3.5182,0,-3.5083,-3.5089,-3.5074,-3.5081,-3.5121,-3.5112,-3.5127,-3.5148,-3.5151,-3.516,-3.5163,-3.5167,-3.517,-3.5173,-3.5207,-3.5232,-3.5186,-3.5227,-3.52,-3.5199,-3.5188,-3.5189,-3.5083,-3.5183,-3.5183,-3.5183,-3.5183,0,-3.5179,-3.5191,-3.5159,-3.5195,-3.5194,-3.518,-3.5193,-3.5189,-3.5207,-3.5224,-3.5229,-3.5262,-3.5247,-3.5288,-3.5269,-3.5295,-3.5295,-3.5306,-3.5304,-3.5306,-3.5352,-3.5292,-3.5185,-3.5178,-3.5308,-3.5309,-3.531,0,-3.5277,-3.5255,-3.5295,-3.5262,-3.5257,-3.5311,-3.5296,-3.531,-3.5331,-3.5328,-3.5349,-3.5342,-3.5379,-3.5382,-3.5368,-3.5389,-3.5355,-3.5393,-3.5388,-3.5388,-3.5388,-3.5289,-3.5267,-3.5205,-3.5323,-3.5322,-3.5321,0,-3.5358,-3.5407,-3.5397,-3.541,-3.5437,-3.5429,-3.5411,-3.5417,-3.5414,-3.5421,-3.5409,-3.5396,-3.5426,-3.5427,-3.5452,-3.5435,-3.5379,-3.5468,-3.5468,-3.5454,-3.5331,-3.5311,-3.53,-3.5399,-3.5397,-3.5396,-3.5332,0,-3.5504,-3.5495,-3.5471,-3.549,-3.549,-3.5468,-3.5506,-3.5501,-3.5528,-3.555,-3.5528,-3.5541,-3.5541,-3.5535,-3.5557,-3.5508,-3.5522,-3.555,-3.5593,-3.5526,-3.5506,-3.5498,-3.5621,-3.5622,-3.5624,-3.5625,0,0,-3.559,-3.5578,-3.562,-3.5605,-3.5608,-3.5661,-3.5636,-3.5643,-3.5655,-3.5655,-3.568,-3.5665,-3.5673,-3.5642,-3.5624,-3.562,-3.5616,-3.5635,-3.5557,-3.5549,-3.5542,-3.552,-3.551,-3.5627,-3.5627,-3.5628,-3.5628,0,-3.5652,-3.5665,-3.5639,-3.5651,-3.5668,-3.5693,-3.5686,-3.5711,-3.5723,-3.5699,-3.5741,-3.573,-3.5712,-3.572,-3.572,-3.5641,-3.5671,-3.5637,-3.5586,-3.5567,-3.5558,-3.555,-3.5526,-3.5517,-3.5631,-3.5631,-3.563,0,-3.5742,-3.5763,-3.5753,-3.576,-3.5771,-3.576,-3.5817,-3.58,-3.5793,-3.5845,-3.5821,-3.5832,-3.5841,-3.5803,-3.5787,-3.5808,-3.5721,-3.5751,-3.5744,-3.5743,-3.5727,-3.5716,-3.5706,-3.5839,-3.5839,-3.584,0,0,-3.579,-3.5781,-3.5814,-3.5776,-3.5781,-3.5815,-3.5811,-3.5837,-3.5846,-3.5849,-3.5865,-3.587,-3.5862,-3.5854,-3.5846,-3.5799,-3.5805,-3.5775,-3.5766,-3.5757,-3.5752,-3.5734,-3.5723,-3.5842,-3.5842,-3.5842,0,0,-3.5811,-3.5851,-3.5877,-3.5838,-3.5848,-3.5876,-3.585,-3.5882,-3.5879,-3.5885,-3.5923,-3.5926,-3.5891,-3.5898,-3.5926,-3.5862,-3.5903,-3.5897,-3.5859,-3.5847,-3.5837,-3.5837,-3.5982,0,0,0,0,0,-3.5894,-3.5848,-3.5871,-3.587,-3.5874,-3.5863,-3.5864,-3.5898,-3.5929,-3.5909,-3.5927,-3.5958,-3.5923,-3.5948,-3.5945,-3.5913,-3.5872,-3.5867,-3.5862,-3.5802,-3.5789,-3.5778,0,0,0,0,0,0,-3.5894,-3.5893,-3.5872,-3.5898,-3.5899,-3.5865,-3.5926,-3.5934,-3.5932,-3.5939,-3.5954,-3.5958,-3.5984,-3.5952,-3.5948,-3.5918,-3.5983,-3.587,-3.5866,-3.5861,-3.5797,-3.5787,-3.5778,0,0,0,0,0,-3.5894,-3.5893,-3.5893,-3.5898,-3.59,-3.5934,-3.5928,-3.5935,-3.5934,-3.596,-3.5966,-3.596,-3.5982,-3.5981,-3.595,-3.5919,-3.5986,-3.5985,-3.5867,-3.5864,-3.586,-3.5792,0,0,0,0,0,0,-3.5894,-3.5898,-3.5894,-3.5895,-3.5919,-3.5936,-3.594,-3.5936,-3.5955,-3.5961,-3.5967,-3.5973,-3.598,-3.598,-3.5978,-3.5918,-3.5989,-3.5987,-3.5986,-3.5864,-3.5862,-3.5859,0,0,0,0,0,0,-3.5899,-3.5899,-3.5894,-3.5918,-3.5923,-3.5938,-3.5942,-3.5918,-3.5955,-3.5962,-3.5967,-3.597,-3.598,-3.5978,-3.5978,-3.5939,-3.599,-3.5989,-3.5988,-3.5987,-3.5862,-3.586,0,0,0,0,0,0,-3.59,-3.59,-3.5918,-3.5921,-3.5926,-3.5945,-3.5917,-3.5919,-3.5979,-3.596,-3.5985,-3.5988,-3.5978,-3.5978,-3.5977,-3.5938,-3.5939,-3.599,-3.5989,-3.5989,-3.5988,0,0,0,0,0,0,0,-3.59,-3.5892,-3.5885,-3.5924,-3.5928,-3.5909,-3.591,-3.591,-3.598,-3.5982,-3.5985,-3.5987,-3.5999,-3.5997,-3.5996,-3.5938,0,0,-3.5991,-3.599,0,0,0,0,0,0,0,0,-3.5893,-3.5893,-3.5885,-3.5885,-3.5886,-3.5909,-3.591,-3.591,-3.598,-3.5982,-3.5984,-3.5986,-3.5999,-3.5997,-3.5996,0,0,0,0,0,0,0,0,0,0,0,0,0,0,0,-3.5885,-3.5885,0,-3.5909,-3.591,-3.591,-3.5981,-3.5982,-3.5984,-3.5985,-3.5998,-3.5997,-3.5996,0,0,0,0,0,0,0,0,0,0,0,0,0,0,0,0,0,0,0,0,0,0,0,0,0,0,0,0,0,0,0,0,0,0,0,0,0,0,0,0,0,0,0,0,0,0,0,0,0,0,0,0,0,0,0,0,0,0,0,0,0,0,0,0,0,0,0,0,0]}]]]